User: anonymous   Login
Location: Unspecified
(0.0000°N, 0.0000°E)
Time: 02:34:07
(UTC+00:00)
Language:

CANX 3A (UNIBRITE) - Orbit

View from above orbital plane
View from above orbital plane
View from above satellite
View from above satellite

Ground track
Ground track

The orbit data is extracted from the following two-line orbital elements,

1 39092U 13009G   16181.81806330 +.00000012 +00000-0 +19943-4 0  9995
2 39092 098.5790 023.2103 0008186 265.6923 094.3327 14.34854701174939
Epoch (UTC): 29 June 2016 19:38:00
Eccentricity: 0.0008186
inclination: 98.5790°
perigee height: 769 km
apogee height: 781 km
right ascension of ascending node: 23.2103°
argument of perigee: 265.6923°
revolutions per day: 14.34854701
mean anomaly at epoch: 94.3327°
orbit number at epoch: 17493

The dashed part of the orbit path shows where the satellite is in the earth's shadow,  

DLR